Overview Statistics Trail Chart Weather Telemetry Raw packets
 

This is the latest recevied weather packets stored in our database for station/object K1RFS. If no packets are shown the sender has not sent any weather packets the latest 10 day(s).

<< 39 40 41 42 43 44 45 >>
Time Temp. Humidity Pressure Rain* Wind** Luminosity Snow
1788425055 15° C 38% 999.6 hPa 0 mm - 0 W/m² -
1788424750 15° C 38% 999.9 hPa 0 mm - 0 W/m² -
1788424446 15° C 39% 999.9 hPa 0 mm - 0 W/m² -
1788424145 15° C 38% 999.9 hPa 0 mm - 0 W/m² -
1788423840 14.44° C 39% 999.6 hPa 0 mm - 0 W/m² -
1788423535 15° C 41% 999.8 hPa 0 mm - 0 W/m² -
1788423230 15° C 40% 999.8 hPa 0 mm - 0 W/m² -
1788422927 15.56° C 40% 999.8 hPa 0 mm - 0 W/m² -
1788422624 15.56° C 39% 999.8 hPa 0 mm - 0 W/m² -
1788422324 15.56° C 39% 999.8 hPa 0 mm - 0 W/m² -
1788422019 16.11° C 38% 999.8 hPa 0 mm - 0 W/m² -
1788421718 16.11° C 37% 999.6 hPa 0 mm - 0 W/m² -
1788421413 16.11° C 36% 999.6 hPa 0 mm - 0 W/m² -
1788421109 16.67° C 38% 999.8 hPa 0 mm - 0 W/m² -
1788420804 16.11° C 39% 999.4 hPa 0 mm - 0 W/m² -
1788420500 16.67° C 40% 999.7 hPa 0 mm - 0 W/m² -
1788420195 17.22° C 38% 999.6 hPa 0 mm - 0 W/m² -
1788419913 17.22° C 38% 999.6 hPa 0 mm - 0 W/m² -
1788419588 17.22° C 37% 999.7 hPa 0 mm - 0 W/m² -
1788419288 17.78° C 37% 999.4 hPa 0 mm - 0 W/m² -
1788418983 17.78° C 36% 999.6 hPa 0 mm - 0 W/m² -
1788418678 17.78° C 35% 999.2 hPa 0 mm - 0 W/m² -
1788418377 17.78° C 36% 999.2 hPa 0 mm - 0 W/m² -
1788418076 17.78° C 39% 999.3 hPa 0 mm - 0 W/m² -
1788417772 18.33° C 31% 999.2 hPa 0 mm - 0 W/m² -

* Rain latest hour (hover to see other rain measurements)
** Current wind speed in m/s (hover to see current wind gust speed)